Weather History for PAIL - September, 2013

Change the Weather History Date:

Saturday, September 7, 2013

  Actual Average Record
Temperature  
Mean Temperature 49 °F -  
Max Temperature 53 °F 57 °F 67 °F (1985)
Min Temperature 45 °F 44 °F 30 °F (1945)
Degree Days  
Heating Degree Days 16    
Moisture  
Dew Point 47 °F    
Average Humidity 91    
Maximum Humidity 100    
Minimum Humidity 77    
Precipitation  
Precipitation 0.02 in - - ()
Sea Level Pressure  
Sea Level Pressure 29.63 in    
Wind  
Wind Speed 3 mph (South)    
Max Wind Speed 7 mph    
Max Gust Speed -    
Visibility 9 miles    
Events Rain    
Averages and records for this station are not official NWS values.
T = Trace of Precipitation, MM = Missing Value Source: NWS Daily Summary

Daily Weather History Graph

Daily Weather History Graph

Search for Another Location

Airport or City:

Trip Planner

Search our weather history database for the weather conditions in past years. The results will help you decide how hot, cold, wet, or windy it might be!

Date:

Astronomy

Sep. 07, 2013 Rise Set
Actual Time 7:30 AM AKDT 9:03 PM AKDT
Civil Twilight 6:47 AM AKDT 9:45 PM AKDT
Nautical Twilight 5:52 AM AKDT 10:39 PM AKDT
Astronomical Twilight 4:47 AM AKDT 11:43 PM AKDT
Moon 10:46 AM AKDT (9/7) 9:12 PM AKDT (9/7)
Length of Visible Light 14h 58m
Length of Day
13h 32m
Waxing Crescent, 6% of the Moon is Illuminated
Sep 7
Waxing Crescent
Sep 12
First Quarter
Sep 19
Full
Sep 26
Last Quarter
Oct 4
New

Hourly Weather History & Observations

Time (AKDT) Temp. Windchill Dew Point Humidity Pressure Visibility Wind Dir Wind Speed Gust Speed Precip Events Conditions
12:53 AM 48.9 °F - 48.0 °F 97% 29.51 in 10.0 mi SW 4.6 mph - N/A   Overcast
1:53 AM 48.9 °F - 46.9 °F 93% 29.54 in 10.0 mi WSW 4.6 mph - N/A   Overcast
2:38 AM 50.0 °F - 46.4 °F 87% 29.54 in 10.0 mi Calm Calm - N/A   Overcast
2:53 AM 48.9 °F - 48.0 °F 97% 29.55 in 10.0 mi SW 3.5 mph - N/A   Overcast
3:53 AM 48.0 °F - 46.9 °F 96% 29.57 in 10.0 mi SW 4.6 mph - N/A   Overcast
4:16 AM 46.4 °F 45.2 °F 44.6 °F 93% 29.57 in 10.0 mi WSW 3.5 mph - N/A   Overcast
4:53 AM 46.0 °F - 45.0 °F 96% 29.60 in 10.0 mi Calm Calm - N/A   Mostly Cloudy
5:53 AM 46.0 °F 43.9 °F 45.0 °F 96% 29.61 in 10.0 mi WSW 4.6 mph - N/A   Overcast
6:07 AM 46.4 °F 45.2 °F 44.6 °F 93% 29.61 in 10.0 mi WSW 3.5 mph - N/A   Overcast
6:53 AM 46.0 °F - 45.0 °F 96% 29.62 in 10.0 mi Calm Calm - N/A   Overcast
7:53 AM 45.0 °F - 44.1 °F 97% 29.64 in 10.0 mi Calm Calm - N/A   Mostly Cloudy
8:53 AM 46.0 °F - 45.0 °F 96% 29.65 in 10.0 mi Calm Calm - N/A   Mostly Cloudy
9:29 AM 48.2 °F - 46.4 °F 93% 29.64 in 10.0 mi Calm Calm - N/A   Mostly Cloudy
9:53 AM 50.0 °F - 48.0 °F 93% 29.66 in 10.0 mi Calm Calm - N/A   Overcast
10:18 AM 48.2 °F - 48.2 °F 100% 29.66 in 4.0 mi SSE 3.5 mph - 0.00 in Rain Light Rain
10:50 AM 48.2 °F - 48.2 °F 100% 29.66 in 1.8 mi SSE 3.5 mph - 0.01 in Rain Light Rain
10:53 AM 48.9 °F - 48.0 °F 97% 29.67 in 2.0 mi Calm Calm - 0.01 in Rain Light Rain
11:19 AM 48.2 °F - 48.2 °F 100% 29.66 in 3.0 mi SE 3.5 mph - 0.01 in Rain Light Rain
11:28 AM 50.0 °F - 48.2 °F 94% 29.67 in 3.0 mi SE 3.5 mph - 0.01 in   Overcast
11:53 AM 50.0 °F - 48.9 °F 96% 29.68 in 6.0 mi SSE 3.5 mph - 0.01 in Rain Light Rain
12:00 PM 50.0 °F - 48.2 °F 94% 29.67 in 4.0 mi SSE 3.5 mph - 0.00 in Rain Light Rain
12:42 PM 51.8 °F - 48.2 °F 88% 29.67 in 10.0 mi SSE 3.5 mph - 0.00 in   Overcast
12:53 PM 51.1 °F - 48.9 °F 92% 29.67 in 10.0 mi South 5.8 mph - 0.00 in   Overcast
1:53 PM 52.0 °F - 46.9 °F 83% 29.67 in 10.0 mi South 6.9 mph - 0.00 in   Overcast
2:53 PM 52.0 °F - 48.0 °F 86% 29.66 in 10.0 mi South 5.8 mph - N/A   Overcast
3:00 PM 51.8 °F - 48.2 °F 88% 29.66 in 10.0 mi South 3.5 mph - N/A   Overcast
3:35 PM 53.6 °F - 48.2 °F 82% 29.65 in 10.0 mi SSE 4.6 mph - N/A   Overcast
3:53 PM 53.1 °F - 48.0 °F 83% 29.65 in 10.0 mi Calm Calm - N/A   Overcast
4:07 PM 53.6 °F - 46.4 °F 77% 29.64 in 10.0 mi Variable 3.5 mph - N/A   Overcast
4:53 PM 53.1 °F - 46.9 °F 80% 29.65 in 10.0 mi SSE 4.6 mph - N/A   Overcast
5:19 PM 53.6 °F - 48.2 °F 82% 29.63 in 10.0 mi South 4.6 mph - N/A   Overcast
5:37 PM 53.6 °F - 48.2 °F 82% 29.63 in 10.0 mi SSW 4.6 mph - N/A   Overcast
5:53 PM 53.1 °F - 48.9 °F 86% 29.63 in 10.0 mi WSW 4.6 mph - N/A   Overcast
6:53 PM 53.1 °F - 48.0 °F 83% 29.62 in 10.0 mi Calm Calm - N/A   Overcast
7:53 PM 52.0 °F - 48.9 °F 89% 29.62 in 10.0 mi Calm Calm - N/A   Overcast
8:53 PM 51.1 °F - 48.9 °F 92% 29.61 in 10.0 mi Calm Calm - N/A   Overcast
9:53 PM 50.0 °F - 48.9 °F 96% 29.61 in 10.0 mi Calm Calm - N/A   Overcast
10:53 PM 50.0 °F - 48.9 °F 96% 29.61 in 10.0 mi Calm Calm - N/A   Overcast
11:53 PM 50.0 °F - 48.9 °F 96% 29.61 in 10.0 mi Calm Calm - 0.00 in   Overcast